User: anonymous   Login
Location: Unspecified
(0.0000°N, 0.0000°E)
Time: 11:12:14
(UTC+00:00)
Language:

USA 276 - Orbit

View from above orbital plane
View from above orbital plane
View from above satellite
View from above satellite

Ground track
Ground track

The orbit data is extracted from the following two-line orbital elements,

1 42689U 17022A   18327.99250487 0.00004800  00000-0  65350-4 0    04
2 42689  50.0099 195.6064 0019590   1.9858 358.0140 15.56607564    06
Epoch (UTC): 23 November 2018 23:49:12
Eccentricity: 0.0019590
inclination: 50.0099°
perigee height: 384 km
apogee height: 411 km
right ascension of ascending node: 195.6064°
argument of perigee: 1.9858°
revolutions per day: 15.56607564
mean anomaly at epoch: 358.0140°
orbit number at epoch: 0

The dashed part of the orbit path shows where the satellite is in the earth's shadow,  

DLR